NOAA 16 DEB, 41094

Orbit data source: Space-Track

NOAA 16 DEB, 41094 is space debris in SSO originally from a launch on Thu, 21 Sep 2000 UTC launched from the Air Force Western Test Range (AFWTR). Debris objects in space refer to the collection of defunct objects orbiting the Earth. Examples of debris include non-operational satellites, rocket bodies, and fragments generated from explosions, collisions, or faulty payload assembly.

Loading next visibility...
Identifier
41094, 2000-055BD
Orbit
SSO
Country
Flag of USUS
Related business
Manufacturer
Unknown
Mission
Spacecraft
Bus & Motor
Unknown
Mass
Unknown
Launch date (UTC)
2000-09-21 (26 years ago)
Launch vehicle
Unknown
Launch site
Air Force Western Test Range (AFWTR)
Object type
Payload
Rocket body
Debris
Shape & HBR
Unknown shape, 0.1 m
Radar Cross Section
Medium (>0.1 m² and <1 m²)

Expand to show TLE details & history
Last TLE update: 15 hours ago

TLE from 15 hours ago
0 NOAA 16 DEB
1 41094U 00055BD  26219.82742221  .00016039  00000-0  16838-2 0  9993
2 41094  98.9947 175.2816 0030201 105.9611 254.4933 14.89257601561077
Epoch: 2026-08-07T19:51Z
TLE epoch observation values (Epoch: 2026-08-07T19:51:29.278Z)
Latitude
-0.00009°
Longitude
-78.93791°
Altitude
608.948 km
Speed
7.552 km/s
True Right ascension
11h 41m 07s
True Declination
0° 00' 00"
Sunlit
Object was in daylight at epoch
Visualization orbit readout
Latitude
Unknown
Longitude
Unknown
Altitude
Unknown
Speed
Unknown
Apparent Right ascension
Unknown
Apparent Declination
Unknown
Sunlit
N/A
Visualization observer readout
Local Sidereal Time
00:39:15
Azimuth
Unknown
Elevation
Unknown
Doppler factor
Unknown
Orbital elements
Apogee altitude
618.401 km
Perigee altitude
576.268 km
Semi-major axis
6,975.472 km
Eccentricity
0.00302
Inclination
98.9947°
RAAN
175.2816°
Arg. of periapsis
105.9611°
True anomaly
254.16016°
Mean anomaly
254.4933°
Eccentric anomaly
254.3267°
Mean motion
3.72548 °/min
Orbital period
96.63 mins
BSTAR
0.0016838
Loading maneuver chart data...
Computing Atmospheric mass density...
Loading historical data...
Loading historical data...
Loading historical data...
Loading historical data...
Loading historical data...
Loading historical data...
Loading historical data...

Documentation

Showing up to 5 results
|